MAGION 3

导读 | 星芒AI

MAGION 3 是一颗由捷克斯洛伐克于1982年发射的科学卫星,主要用于研究地球电离层和磁层的物理特性。该卫星搭载了多种科学仪器,用于测量高能粒子、磁场和等离子体参数。MAGION 3 是 MAGION 系列卫星中的第三颗,该系列卫星在空间物理研究方面做出了重要贡献。其任务有助于增进对地球空间环境的理解,并为后续空间探测任务提供了宝贵数据。

基本信息
目录编号:
21835
目录名称:
MAGION 3
国际标识:
1991-086E
轨道中心:
EARTH
卫星名称:
MAGION 3
卫星全名:
--
卫星状态:
在轨 (已飞行12369 天)
发射日期:
1991-12-18 UTC
国别 :
(CZ)
星等 :
--
轨道信息
数据来源 国际轨道数据
星历时间: 2025-10-28T20:11:44+0800
19小时前
查看轨道信息
半长轴: 7969.242km
偏心率: 0.1453849
轨道倾角: 82.536°
近地点辐角 246.896°
升交点赤经 326.824°
平近点角 97.265°
近地点: 432.499km
远地点: 2749.715km
周期: 118.001分钟
每日圈数: 12.203299
详细信息
使用方式:
暂无
2D轨道图
3D轨道图
轨道高度分析图
轨道倾角分析图
轨道综合分析图
查看轨道综合分析图